Regional Weather Roundup
Issued by NWS Charleston, WV

Home | Current Version | Previous Version | Graphics & Text | Print | Product List | Glossary On
Versions: 1 2 3 4 5 6 7 8 9 10 11 12 13 14 15 16 17 18 19 20 21 22 23 24 25 26 27 28
000
ASUS41 KRLX 192010
RWRRLX
West Virginia Regional Weather Roundup
National Weather Service Charleston WV
400 PM EDT WED JUL 19 2017

Note: "fair" indicates few or no clouds below 12,000 feet with no
significant weather and/or obstructions to visibility.

WVZ003-192100-
Northern Panhandle of West Virginia

CITY           SKY/WX    TMP DP  RH WIND       PRES   REMARKS
WHEELING       SUNNY     88  68  51 W6        30.08F
$$

WVZ009-192100-
Northwest West Virginia

CITY           SKY/WX    TMP DP  RH WIND       PRES   REMARKS
PARKERSBURG    PTSUNNY   88  71  57 VRB5      30.10F
$$

WVZ006-192100-
Western West Virginia

CITY           SKY/WX    TMP DP  RH WIND       PRES   REMARKS
HUNTINGTON     MOSUNNY   90  69  50 VRB6      30.08F
$$

WVZ015-192100-
West Central West Virginia

CITY           SKY/WX    TMP DP  RH WIND       PRES   REMARKS
CHARLESTON     MOSUNNY   89  64  43 CALM      30.09F
$$

WVZ022-031-192100-
North Central West Virginia

CITY           SKY/WX    TMP DP  RH WIND       PRES   REMARKS
CLARKSBURG     PTSUNNY   86  67  52 S5        30.10F
MORGANTOWN     MOSUNNY   90  65  43 W5        30.10F
$$

WVZ025-035-042-045-192100-
Southern West Virginia

CITY           SKY/WX    TMP DP  RH WIND       PRES   REMARKS
BECKLEY        MOSUNNY   84  61  45 VRB5      30.19F
LOGAN            N/A     88  66  48 CALM      30.14F
BLUEFIELD      MOSUNNY   82  59  45 W9        30.21F
LEWISBURG      MOSUNNY   84  62  46 W7        30.17F
$$

WVZ047-192100-
Northern Mountains of West Virginia

CITY           SKY/WX    TMP DP  RH WIND       PRES   REMARKS
ELKINS         SUNNY     86  63  45 VRB3      30.15F
$$

WVZ052-192100-
Eastern Panhandle of West Virginia

CITY           SKY/WX    TMP DP  RH WIND       PRES   REMARKS
MARTINSBURG    SUNNY     92  61  35 VRB5      30.03F
PETERSBURG     PTSUNNY   94  63  35 NW7       30.06F
$$




USA.gov is the U.S. government's official web portal to all federal, state and local government web resources and services.